Weather History for Dunkirk, NY

Change the Weather History Date:

Tuesday, July 2, 2013

  Actual Average Record
Temperature  
Mean Temperature 66 °F -  
Max Temperature 75 °F 79 °F 95 °F (1931)
Min Temperature 60 °F 59 °F 48 °F (1936)
Cooling Degree Days 2    
Growing Degree Days 16 (Base 50)    
Moisture  
Dew Point 61 °F    
Average Humidity 83    
Maximum Humidity 96    
Minimum Humidity 68    
Precipitation  
Precipitation 0.01 in - - ()
Sea Level Pressure  
Sea Level Pressure 30.05 in    
Wind  
Wind Speed 7 mph (NNW)    
Max Wind Speed 13 mph    
Max Gust Speed -    
Visibility 9 miles    
Events      
Averages and records for this station are not official NWS values.
T = Trace of Precipitation, MM = Missing Value Source: NWS Daily Summary

Daily Weather History Graph

Daily Weather History Graph

Search for Another Location

Airport:

Trip Planner

Search our weather history database for the weather conditions in past years. The results will help you decide how hot, cold, wet, or windy it might be!

Date:

Astronomy

Jul. 02, 2013 Rise Set
Actual Time 5:44 AM EDT 8:57 PM EDT
Civil Twilight 5:09 AM EDT 9:32 PM EDT
Nautical Twilight 4:24 AM EDT 10:17 PM EDT
Astronomical Twilight 3:30 AM EDT 11:11 PM EDT
Moon 1:49 AM EDT (7/2) 4:07 PM EDT (7/2)
Length of Visible Light 16h 22m
Length of Day
15h 13m
Waning Crescent, 26% of the Moon is Illuminated
Jul 2
Waning Crescent
Jul 8
New
Jul 15
First Quarter
Jul 22
Full
Jul 29
Last Quarter

Hourly Weather History & Observations

Time (EDT) Temp. Dew Point Humidity Pressure Visibility Wind Dir Wind Speed Gust Speed Precip Events Conditions
12:08 AM 62.6 °F 60.8 °F 94% 30.04 in 10.0 mi Variable 6.9 mph - N/A   Overcast
12:53 AM 61.0 °F 59.0 °F 93% 30.04 in 10.0 mi NE 10.4 mph - N/A   Overcast
1:38 AM 60.8 °F 59.0 °F 94% 30.04 in 6.0 mi NE 8.1 mph - N/A   Overcast
1:53 AM 61.0 °F 59.0 °F 93% 30.04 in 8.0 mi NE 6.9 mph - N/A   Overcast
2:15 AM 60.8 °F 59.0 °F 94% 30.04 in 10.0 mi Variable 5.8 mph - N/A   Overcast
2:30 AM 62.6 °F 59.0 °F 88% 30.03 in 10.0 mi NE 8.1 mph - N/A   Overcast
2:53 AM 62.1 °F 59.0 °F 90% 30.01 in 10.0 mi NE 9.2 mph - N/A   Overcast
3:53 AM 61.0 °F 57.9 °F 90% 29.99 in 10.0 mi NE 10.4 mph - N/A   Overcast
4:53 AM 61.0 °F 57.9 °F 90% 30.01 in 10.0 mi Variable 5.8 mph - N/A   Overcast
5:35 AM 60.8 °F 57.2 °F 88% 30.02 in 10.0 mi Variable 5.8 mph - N/A   Overcast
5:51 AM 60.8 °F 57.2 °F 88% 30.02 in 10.0 mi Variable 4.6 mph - N/A   Mostly Cloudy
5:53 AM 60.1 °F 57.9 °F 93% 30.02 in 9.0 mi NE 6.9 mph - N/A   Mostly Cloudy
6:07 AM 60.8 °F 57.2 °F 88% 30.04 in 9.0 mi Variable 5.8 mph - N/A   Mostly Cloudy
6:39 AM 60.8 °F 57.2 °F 88% 30.04 in 8.0 mi Variable 4.6 mph - N/A   Overcast
6:53 AM 61.0 °F 57.9 °F 90% 30.04 in 10.0 mi NE 5.8 mph - N/A   Overcast
7:53 AM 62.1 °F 59.0 °F 90% 30.04 in 10.0 mi Variable 5.8 mph - N/A   Overcast
8:53 AM 63.0 °F 60.1 °F 90% 30.04 in 10.0 mi Variable 5.8 mph - N/A   Overcast
9:07 AM 64.4 °F 60.8 °F 88% 30.05 in 10.0 mi NW 5.8 mph - N/A   Overcast
10:53 AM 64.9 °F 60.1 °F 84% 30.05 in 10.0 mi Variable 5.8 mph - N/A   Overcast
11:53 AM 66.0 °F 61.0 °F 84% 30.06 in 10.0 mi NE 6.9 mph - N/A   Overcast
12:33 PM 68.0 °F 62.6 °F 83% 30.07 in 10.0 mi NW 12.7 mph - N/A   Overcast
12:53 PM 69.1 °F 62.1 °F 78% 30.06 in 10.0 mi NW 9.2 mph - N/A   Mostly Cloudy
1:01 PM 69.8 °F 62.6 °F 78% 30.07 in 10.0 mi NW 10.4 mph - N/A   Scattered Clouds
1:53 PM 70.0 °F 62.1 °F 76% 30.06 in 10.0 mi NW 8.1 mph - N/A   Scattered Clouds
2:16 PM 71.6 °F 62.6 °F 73% 30.07 in 10.0 mi NW 6.9 mph - N/A   Mostly Cloudy
2:53 PM 70.0 °F 62.1 °F 76% 30.06 in 10.0 mi WNW 8.1 mph - N/A   Overcast
3:53 PM 72.0 °F 62.1 °F 71% 30.06 in 10.0 mi WNW 8.1 mph - N/A   Overcast
4:00 PM 71.6 °F 62.6 °F 73% 30.06 in 10.0 mi WNW 8.1 mph - N/A   Mostly Cloudy
4:13 PM 71.6 °F 62.6 °F 73% 30.06 in 10.0 mi WNW 6.9 mph - N/A   Scattered Clouds
4:21 PM 71.6 °F 62.6 °F 73% 30.06 in 10.0 mi WNW 10.4 mph - N/A   Mostly Cloudy
4:34 PM 73.4 °F 62.6 °F 69% 30.05 in 10.0 mi NW 6.9 mph - N/A   Scattered Clouds
4:53 PM 73.9 °F 63.0 °F 68% 30.05 in 10.0 mi Variable 5.8 mph - N/A   Clear
5:53 PM 73.0 °F 63.0 °F 71% 30.05 in 10.0 mi WNW 8.1 mph - N/A   Clear
6:53 PM 72.0 °F 63.0 °F 73% 30.05 in 9.0 mi WNW 6.9 mph - N/A   Clear
7:53 PM 72.0 °F 63.0 °F 73% 30.07 in 8.0 mi Variable 4.6 mph - N/A   Scattered Clouds
8:04 PM 71.6 °F 64.4 °F 78% 30.09 in 7.0 mi Variable 4.6 mph - N/A   Mostly Cloudy
8:43 PM 71.6 °F 64.4 °F 78% 30.09 in 6.0 mi Variable 3.5 mph - N/A   Haze
8:53 PM 71.1 °F 64.0 °F 78% 30.08 in 6.0 mi Calm Calm - N/A   Haze
9:53 PM 69.1 °F 66.0 °F 90% 30.08 in 6.0 mi Variable 3.5 mph - 0.01 in   Mostly Cloudy
10:53 PM 68.0 °F 66.0 °F 93% 30.08 in 5.0 mi Variable 4.6 mph - N/A   Mostly Cloudy
11:53 PM 66.0 °F 64.9 °F 96% 30.09 in 4.0 mi SSW 6.9 mph - N/A   Scattered Clouds